sat.trackr.live / text

‹ back to catalog

STARLINK-35364

NORAD 65840 · 2025-221T

PAYLOAD ACTIVE UNKNOWN

§ Identity

Operator
Country
US
Launch date
2025-09-29
Launch site
AFWTR
Launch vehicle
Mass (kg)
RCS (m²)

Purposes: comms

External: N2YO · Heavens-Above · Gunter

§ Orbital elements

Epoch: 2026-09-20T22:20:27.153312Z

Period
93.85 min
Inclination
53.1573°
Eccentricity
0.0001600
Mean motion
15.34376325 rev/d
Perigee alt
461.7 km
Apogee alt
463.9 km
Semi-major
6,840.9 km
B*
3.5180e-4
RAAN
257.3568°
Arg perigee
93.2900°
Mean anomaly
266.8285°
Rev number
5,468

§ Raw data

STARLINK-353641 65840U 25221T   26263.93086983  .00011519  00000+0  35180-3 0  99962 65840  53.1573 257.3568 0001600  93.2900 266.8285 15.34376325 54684

JSON: /api/v1/satellites/65840 · /tle

For live sub-satellite position, see the globe view (requires WebGL).

§ Visibility from observer

Set your observer location to see the next 7 days of passes ≥ 10°. The values pass through the URL so the page stays shareable.

No JS? Fill the form by hand. The geolocation button needs JavaScript.